GW6826 Weather Reports


time (UTC)temp
C
wind
direction
speed
KPH
gust
KPH
rain 1hr
cm
rain 24hr
cm
rain mn
cm
humidity
%
barometer
mb
20260504081524 24 200 1.6 9.7 0.00 0.00 0.00 44 1013.0
20260504050020 20 12 9.7 17.7 0.00 0.00 0.00 56 1013.2
20260504044525 20 36 1.6 11.3 0.00 0.00 0.00 62 1014.0
20260504043014 20 250 8.0 12.9 0.00 0.00 0.00 58 1014.6
20260504041522 20 299 1.6 4.8 0.00 0.00 0.00 58 1013.5
20260504040022 20 160 0.0 6.4 0.00 0.00 0.00 58 1013.5
20260504034531 20 352 3.2 8.0 0.00 0.00 0.00 58 1013.2
20260504033021 20 325 1.6 8.0 0.00 0.00 0.00 55 1013.5
20260504031517 20 335 4.8 14.5 0.00 0.00 0.00 54 1013.1
20260504030037 20 86 4.8 14.5 0.00 0.00 0.00 56 1012.8
20260504024522 19 5 3.2 14.5 0.00 0.00 0.00 61 1013.2
20260504023010 20 273 3.2 14.5 0.00 0.00 0.00 55 1013.0
20260504021514 20 279 9.7 14.5 0.00 0.00 0.00 54 1012.7
20260504020020 20 13 4.8 17.7 0.00 0.00 0.00 53 1011.8
20260504014511 20 315 8.0 17.7 0.00 0.00 0.00 57 1012.4
20260504013008 20 329 3.2 8.0 0.00 0.00 0.00 60 1012.3
20260504011511 20 323 4.8 14.5 0.00 0.00 0.00 57 1012.4
20260504010020 20 275 0.0 6.4 0.00 0.00 0.00 56 1011.7
20260504004522 21 352 1.6 6.4 0.00 0.00 0.00 53 1011.1
20260504003010 21 360 1.6 11.3 0.00 0.00 0.00 52 1011.0
20260504001507 21 352 4.8 14.5 0.00 0.00 0.00 49 1010.8
20260504000013 21 57 4.8 14.5 0.00 0.00 0.00 50 1010.8
20260503234529 22 295 3.2 6.4 0.00 0.00 0.00 46 1011.6
20260503233021 22 311 1.6 9.7 0.00 0.00 0.00 47 1010.9
20260503231512 22 294 3.2 12.9 0.00 0.00 0.00 46 1010.8
20260503230012 22 327 3.2 9.7 0.00 0.00 0.00 46 1010.8
20260503224517 23 51 1.6 6.4 0.00 0.00 0.00 44 1010.9
20260503223018 23 113 3.2 12.9 0.00 0.00 0.00 44 1011.3
20260503221524 23 117 8.0 19.3 0.00 0.00 0.00 45 1011.3
20260503220007 23 171 6.4 17.7 0.00 0.00 0.00 44 1011.7
20260503214514 22 186 9.7 25.7 0.00 0.00 0.00 50 1012.5
20260503213018 22 162 12.9 20.9 0.00 0.00 0.00 56 1012.7
20260503211520 22 293 4.8 14.5 0.00 0.00 0.00 52 1011.8
20260503210028 22 345 1.6 12.9 0.00 0.00 0.00 51 1011.4
20260503204512 23 305 0.0 14.5 0.00 0.00 0.00 48 1010.6
20260503203021 22 82 3.2 12.9 0.00 0.00 0.00 48 1010.7
20260503201518 22 78 9.7 12.9 0.00 0.00 0.00 51 1011.1
20260503200024 23 92 3.2 48.3 0.00 0.00 0.00 43 1012.2
20260503194527 26 182 3.2 19.3 0.00 0.00 0.00 34 1011.7
20260503193034 26 146 8.0 17.7 0.00 0.00 0.00 33 1011.0
20260503191516 26 121 9.7 24.1 0.00 0.00 0.00 35 1011.1
20260503190019 26 154 9.7 14.5 0.00 0.00 0.00 32 1011.2
20260503184534 26 150 9.7 16.1 0.00 0.00 0.00 36 1011.7
20260503183029 26 238 0.0 3.2 0.00 0.00 0.00 36 1012.1
20260503181528 26 86 0.0 4.8 0.00 0.00 0.00 36 1011.7
20260503180024 26 100 1.6 9.7 0.00 0.00 0.00 36 1011.5
20260503174530 25 129 1.6 8.0 0.00 0.00 0.00 37 1011.7
20260503173035 25 207 4.8 9.7 0.00 0.00 0.00 37 1011.6
20260503171516 25 202 3.2 22.5 0.00 0.00 0.00 39 1011.1